This is the latest recevied weather packets stored in our database for station/object JA0ZJX-13. If no packets are shown the sender has not sent any weather packets the latest 10 day(s).
| Time | Temp. | Humidity | Pressure | Rain* | Wind** | Luminosity | Snow |
|---|---|---|---|---|---|---|---|
| 1777715623 | 18.89° C | 43% | 1011 hPa | 0 mm | - | 0 W/m² | - |
| 1777715011 | 19.44° C | 41% | 1011 hPa | 0 mm | - | 0 W/m² | - |
| 1777714418 | 19.44° C | 39% | 1010.8 hPa | 0 mm | - | 5 W/m² | - |
| 1777713812 | 20° C | 38% | 1010.6 hPa | 0 mm | - | 14 W/m² | - |
| 1777713221 | 20.56° C | 37% | 1010.5 hPa | 0 mm | - | 32 W/m² | - |
| 1777712610 | 20.56° C | 35% | 1010.5 hPa | 0 mm | - | 47 W/m² | - |
| 1777712018 | 21.11° C | 36% | 1010.5 hPa | 0 mm | - | 79 W/m² | - |
| 1777711411 | 21.11° C | 35% | 1010.3 hPa | 0 mm | - | 113 W/m² | - |
| 1777710821 | 21.11° C | 37% | 1010.1 hPa | 0 mm | - | 97 W/m² | - |
| 1777710210 | 21.67° C | 36% | 1009.9 hPa | 0 mm | - | 107 W/m² | - |
| 1777709619 | 21.67° C | 35% | 1009.9 hPa | 0 mm | - | 139 W/m² | - |
| 1777709013 | 21.67° C | 33% | 1009.8 hPa | 0 mm | - | 162 W/m² | - |
| 1777708421 | 22.22° C | 31% | 1009.8 hPa | 0 mm | - | 181 W/m² | - |
| 1777707811 | 22.22° C | 31% | 1009.8 hPa | 0 mm | - | 178 W/m² | - |
| 1777707222 | 22.78° C | 31% | 1009.8 hPa | 0 mm | - | 204 W/m² | - |
| 1777706611 | 22.78° C | 30% | 1009.6 hPa | 0 mm | - | 302 W/m² | - |
| 1777706020 | 22.78° C | 32% | 1009.4 hPa | 0 mm | - | 327 W/m² | - |
| 1777705408 | 22.78° C | 30% | 1009.3 hPa | 0 mm | - | 380 W/m² | - |
| 1777704822 | 22.78° C | 30% | 1009.3 hPa | 0 mm | - | 338 W/m² | - |
| 1777704209 | 22.78° C | 29% | 1009.2 hPa | 0 mm | - | 258 W/m² | - |
| 1777703617 | 23.33° C | 30% | 1009.1 hPa | 0 mm | - | 462 W/m² | - |
| 1777703006 | 22.78° C | 29% | 1009 hPa | 0 mm | - | 468 W/m² | - |
| 1777702418 | 22.78° C | 29% | 1009 hPa | 0 mm | - | 619 W/m² | - |
| 1777701806 | 23.33° C | 29% | 1009 hPa | 0 mm | - | 485 W/m² | - |
| 1777701215 | 23.33° C | 29% | 1008.8 hPa | 0 mm | - | 540 W/m² | - |
* Rain latest hour (hover to see other rain measurements)
** Current wind speed in m/s (hover to see current wind gust speed)